| time (UTC) | temp F | wind direction | speed MPH | gust MPH | rain 1hr in | rain 24hr in | rain mn in | humidity % | barometer mb |
| 20260901190718 | 72 | 50 | 0.0 | 0.0 | 0.00 | 0.00 | 0.00 | 58 | 1028.8 |
| 20260901190218 | 72 | 50 | 0.0 | 0.0 | 0.00 | 0.00 | 0.00 | 59 | 1028.9 |
| 20260901185717 | 72 | 50 | 0.0 | 0.0 | 0.00 | 0.00 | 0.00 | 59 | 1028.9 |
| 20260901185215 | 72 | 50 | 0.0 | 0.0 | 0.00 | 0.00 | 0.00 | 56 | 1028.8 |
| 20260901184711 | 73 | 50 | 0.0 | 0.0 | 0.00 | 0.00 | 0.00 | 62 | 1029.0 |
| 20260901184201 | 72 | 50 | 0.0 | 0.0 | 0.00 | 0.00 | 0.00 | 59 | 1028.9 |
| 20260901183656 | 72 | 50 | 0.0 | 0.0 | 0.00 | 0.00 | 0.00 | 58 | 1029.0 |
| 20260901183155 | 72 | 50 | 0.0 | 0.0 | 0.00 | 0.00 | 0.00 | 59 | 1028.9 |
| 20260901182652 | 72 | 50 | 0.0 | 0.0 | 0.00 | 0.00 | 0.00 | 59 | 1028.8 |
| 20260901182150 | 72 | 50 | 0.0 | 0.0 | 0.00 | 0.00 | 0.00 | 61 | 1028.9 |
| 20260901181645 | 73 | 50 | 0.0 | 0.0 | 0.00 | 0.00 | 0.00 | 59 | 1028.9 |
| 20260901181139 | 73 | 50 | 0.0 | 0.0 | 0.00 | 0.00 | 0.00 | 58 | 1028.7 |
| 20260901180634 | 73 | 50 | 0.0 | 0.0 | 0.00 | 0.00 | 0.00 | 58 | 1028.8 |
| 20260901180128 | 73 | 50 | 0.0 | 0.0 | 0.00 | 0.00 | 0.00 | 57 | 1029.0 |
| 20260901175627 | 73 | 50 | 0.0 | 0.0 | 0.00 | 0.00 | 0.00 | 59 | 1028.9 |
| 20260901175122 | 72 | 50 | 0.0 | 0.0 | 0.00 | 0.00 | 0.00 | 56 | 1028.7 |
| 20260901174617 | 73 | 50 | 0.0 | 0.0 | 0.00 | 0.00 | 0.00 | 59 | 1028.8 |
| 20260901174114 | 72 | 50 | 0.0 | 0.0 | 0.00 | 0.00 | 0.00 | 56 | 1028.9 |
| 20260901173613 | 73 | 50 | 0.0 | 0.0 | 0.00 | 0.00 | 0.00 | 59 | 1028.8 |
| 20260901173109 | 72 | 50 | 0.0 | 0.0 | 0.00 | 0.00 | 0.00 | 58 | 1028.9 |
| 20260901172605 | 72 | 50 | 0.0 | 1.0 | 0.00 | 0.00 | 0.00 | 57 | 1028.9 |
| 20260901172103 | 72 | 50 | 0.0 | 0.0 | 0.00 | 0.00 | 0.00 | 61 | 1028.8 |
| 20260901171602 | 71 | 50 | 0.0 | 0.0 | 0.00 | 0.00 | 0.00 | 60 | 1028.7 |
| 20260901171101 | 72 | 50 | 0.0 | 0.0 | 0.00 | 0.00 | 0.00 | 60 | 1028.6 |
| 20260901170555 | 72 | 50 | 0.0 | 0.0 | 0.00 | 0.00 | 0.00 | 60 | 1028.8 |
| 20260901170050 | 72 | 50 | 0.0 | 0.0 | 0.00 | 0.00 | 0.00 | 60 | 1028.8 |
| 20260901165544 | 72 | 50 | 0.0 | 1.0 | 0.00 | 0.00 | 0.00 | 60 | 1028.8 |
| 20260901165040 | 72 | 50 | 0.0 | 0.0 | 0.00 | 0.00 | 0.00 | 61 | 1028.9 |
| 20260901164535 | 71 | 50 | 0.0 | 0.0 | 0.00 | 0.00 | 0.00 | 62 | 1028.9 |
| 20260901164030 | 71 | 50 | 0.0 | 0.0 | 0.00 | 0.00 | 0.00 | 61 | 1028.8 |
| 20260901163526 | 70 | 50 | 0.0 | 0.0 | 0.00 | 0.00 | 0.00 | 65 | 1028.9 |
| 20260901163025 | 69 | 50 | 0.0 | 0.0 | 0.00 | 0.00 | 0.00 | 62 | 1028.9 |
| 20260901162520 | 69 | 50 | 0.0 | 0.0 | 0.00 | 0.00 | 0.00 | 61 | 1029.0 |
| 20260901162019 | 69 | 50 | 0.0 | 1.0 | 0.00 | 0.00 | 0.00 | 61 | 1028.9 |
| 20260901161518 | 69 | 50 | 1.0 | 1.0 | 0.00 | 0.00 | 0.00 | 63 | 1029.0 |
| 20260901161018 | 68 | 50 | 0.0 | 0.0 | 0.00 | 0.00 | 0.00 | 63 | 1029.1 |
| 20260901160515 | 68 | 50 | 0.0 | 0.0 | 0.00 | 0.00 | 0.00 | 70 | 1029.3 |
| 20260901160014 | 68 | 50 | 0.0 | 0.0 | 0.00 | 0.00 | 0.00 | 69 | 1029.1 |
| 20260901155508 | 68 | 50 | 0.0 | 0.0 | 0.00 | 0.00 | 0.00 | 68 | 1029.3 |
| 20260901155004 | 67 | 50 | 0.0 | 0.0 | 0.00 | 0.00 | 0.00 | 69 | 1029.3 |
| 20260901154504 | 68 | 50 | 0.0 | 0.0 | 0.00 | 0.00 | 0.00 | 67 | 1029.3 |
| 20260901153958 | 67 | 50 | 0.0 | 0.0 | 0.00 | 0.00 | 0.00 | 65 | 1029.2 |
| 20260901153453 | 67 | 50 | 0.0 | 0.0 | 0.00 | 0.00 | 0.00 | 71 | 1029.2 |
| 20260901152952 | 67 | 50 | 0.0 | 0.0 | 0.00 | 0.00 | 0.00 | 70 | 1029.3 |
| 20260901152447 | 67 | 50 | 0.0 | 0.0 | 0.00 | 0.00 | 0.00 | 70 | 1029.2 |
| 20260901151947 | 66 | 50 | 0.0 | 0.0 | 0.00 | 0.00 | 0.00 | 69 | 1029.2 |
| 20260901151442 | 67 | 50 | 0.0 | 0.0 | 0.00 | 0.00 | 0.00 | 68 | 1029.2 |
| 20260901150941 | 66 | 50 | 0.0 | 0.0 | 0.00 | 0.00 | 0.00 | 66 | 1029.3 |
| 20260901150439 | 65 | 50 | 0.0 | 0.0 | 0.00 | 0.00 | 0.00 | 69 | 1029.2 |
| 20260901145936 | 65 | 50 | 0.0 | 0.0 | 0.00 | 0.00 | 0.00 | 70 | 1029.2 |
| 20260901145431 | 66 | 50 | 0.0 | 0.0 | 0.00 | 0.00 | 0.00 | 69 | 1028.8 |
| 20260901144926 | 65 | 50 | 0.0 | 0.0 | 0.00 | 0.00 | 0.00 | 69 | 1028.8 |
| 20260901144421 | 66 | 50 | 0.0 | 0.0 | 0.00 | 0.00 | 0.00 | 69 | 1028.7 |
| 20260901143917 | 66 | 50 | 0.0 | 0.0 | 0.00 | 0.00 | 0.00 | 68 | 1028.9 |
| 20260901143413 | 64 | 50 | 0.0 | 0.0 | 0.00 | 0.00 | 0.00 | 70 | 1029.1 |
| 20260901142909 | 64 | 50 | 0.0 | 0.0 | 0.00 | 0.00 | 0.00 | 72 | 1029.1 |
| 20260901142408 | 63 | 50 | 0.0 | 0.0 | 0.00 | 0.00 | 0.00 | 73 | 1029.0 |
| 20260901141903 | 63 | 50 | 0.0 | 1.0 | 0.00 | 0.00 | 0.00 | 75 | 1029.2 |
| 20260901141358 | 64 | 50 | 0.0 | 0.0 | 0.00 | 0.00 | 0.00 | 72 | 1029.2 |
| 20260901140857 | 63 | 50 | 0.0 | 0.0 | 0.00 | 0.00 | 0.00 | 71 | 1029.3 |
| 20260901140356 | 63 | 50 | 0.0 | 1.0 | 0.00 | 0.00 | 0.00 | 70 | 1029.4 |
| 20260901135850 | 63 | 50 | 0.0 | 0.0 | 0.00 | 0.00 | 0.00 | 73 | 1029.5 |
| 20260901135346 | 62 | 50 | 0.0 | 0.0 | 0.00 | 0.00 | 0.00 | 71 | 1029.5 |
| 20260901134841 | 62 | 50 | 0.0 | 1.0 | 0.00 | 0.00 | 0.00 | 73 | 1029.4 |
| 20260901134337 | 62 | 50 | 0.0 | 0.0 | 0.00 | 0.00 | 0.00 | 77 | 1029.5 |
| 20260901133831 | 62 | 50 | 0.0 | 0.0 | 0.00 | 0.00 | 0.00 | 80 | 1029.4 |
| 20260901133330 | 61 | 50 | 0.0 | 0.0 | 0.00 | 0.00 | 0.00 | 80 | 1029.6 |
| 20260901132829 | 60 | 50 | 0.0 | 0.0 | 0.00 | 0.00 | 0.00 | 80 | 1029.5 |
| 20260901132323 | 60 | 50 | 0.0 | 0.0 | 0.00 | 0.00 | 0.00 | 80 | 1029.6 |
| 20260901131818 | 60 | 50 | 0.0 | 0.0 | 0.00 | 0.00 | 0.00 | 81 | 1029.6 |
| 20260901131317 | 60 | 50 | 0.0 | 0.0 | 0.00 | 0.00 | 0.00 | 83 | 1029.6 |
| 20260901130812 | 59 | 50 | 0.0 | 0.0 | 0.00 | 0.00 | 0.00 | 82 | 1029.6 |
| 20260901130307 | 59 | 50 | 0.0 | 0.0 | 0.00 | 0.00 | 0.00 | 84 | 1029.6 |
| 20260901125804 | 59 | 50 | 0.0 | 0.0 | 0.00 | 0.00 | 0.00 | 83 | 1029.7 |
| 20260901125259 | 59 | 50 | 0.0 | 0.0 | 0.00 | 0.00 | 0.00 | 84 | 1029.5 |
| 20260901124754 | 58 | 50 | 0.0 | 0.0 | 0.00 | 0.00 | 0.00 | 85 | 1029.8 |
| 20260901124249 | 59 | 50 | 0.0 | 0.0 | 0.00 | 0.00 | 0.00 | 86 | 1029.7 |
| 20260901123748 | 58 | 50 | 0.0 | 0.0 | 0.00 | 0.00 | 0.00 | 87 | 1029.7 |
| 20260901123243 | 58 | 50 | 0.0 | 0.0 | 0.00 | 0.00 | 0.00 | 87 | 1029.9 |
| 20260901122742 | 58 | 50 | 0.0 | 0.0 | 0.00 | 0.00 | 0.00 | 89 | 1029.8 |
| 20260901122236 | 57 | 50 | 0.0 | 0.0 | 0.00 | 0.00 | 0.00 | 89 | 1029.9 |
| 20260901121730 | 57 | 50 | 0.0 | 0.0 | 0.00 | 0.00 | 0.00 | 89 | 1029.7 |
| 20260901121226 | 57 | 50 | 0.0 | 0.0 | 0.00 | 0.00 | 0.00 | 90 | 1029.4 |
| 20260901120725 | 56 | 50 | 0.0 | 0.0 | 0.00 | 0.00 | 0.00 | 91 | 1029.4 |
| 20260901120220 | 56 | 50 | 0.0 | 0.0 | 0.00 | 0.00 | 0.00 | 91 | 1029.4 |
| 20260901115715 | 56 | 50 | 0.0 | 0.0 | 0.00 | 0.00 | 0.00 | 92 | 1029.5 |
| 20260901115212 | 55 | 50 | 0.0 | 0.0 | 0.00 | 0.00 | 0.00 | 93 | 1029.6 |
| 20260901114709 | 55 | 50 | 0.0 | 0.0 | 0.00 | 0.00 | 0.00 | 94 | 1029.7 |
| 20260901114208 | 55 | 50 | 0.0 | 0.0 | 0.00 | 0.00 | 0.00 | 94 | 1029.5 |
| 20260901113702 | 55 | 50 | 0.0 | 0.0 | 0.00 | 0.00 | 0.00 | 94 | 1029.4 |
| 20260901113157 | 55 | 50 | 0.0 | 0.0 | 0.00 | 0.00 | 0.00 | 94 | 1029.3 |
| 20260901112656 | 54 | 50 | 0.0 | 0.0 | 0.00 | 0.00 | 0.00 | 94 | 1029.4 |
| 20260901112150 | 54 | 50 | 0.0 | 0.0 | 0.00 | 0.00 | 0.00 | 94 | 1029.5 |
| 20260901111649 | 54 | 50 | 0.0 | 0.0 | 0.00 | 0.00 | 0.00 | 94 | 1029.3 |
| 20260901111144 | 54 | 50 | 0.0 | 0.0 | 0.00 | 0.00 | 0.00 | 94 | 1029.3 |
| 20260901110639 | 54 | 50 | 0.0 | 0.0 | 0.00 | 0.00 | 0.00 | 94 | 1028.9 |
| 20260901110134 | 54 | 50 | 0.0 | 0.0 | 0.00 | 0.00 | 0.00 | 94 | 1029.0 |
| 20260901105631 | 54 | 50 | 0.0 | 0.0 | 0.00 | 0.00 | 0.00 | 94 | 1029.0 |
| 20260901105129 | 54 | 50 | 0.0 | 0.0 | 0.00 | 0.00 | 0.00 | 94 | 1029.1 |
| 20260901104626 | 54 | 50 | 0.0 | 0.0 | 0.00 | 0.00 | 0.00 | 94 | 1029.2 |
| 20260901104121 | 54 | 50 | 0.0 | 0.0 | 0.00 | 0.00 | 0.00 | 94 | 1028.9 |
| 20260901103615 | 53 | 50 | 0.0 | 0.0 | 0.00 | 0.00 | 0.00 | 94 | 1029.0 |
| 20260901103110 | 53 | 50 | 0.0 | 0.0 | 0.00 | 0.00 | 0.00 | 94 | 1028.9 |
| 20260901102604 | 53 | 50 | 0.0 | 0.0 | 0.00 | 0.00 | 0.00 | 94 | 1028.7 |
| 20260901102059 | 53 | 50 | 0.0 | 0.0 | 0.00 | 0.00 | 0.00 | 94 | 1028.6 |
| 20260901101555 | 53 | 50 | 0.0 | 0.0 | 0.00 | 0.00 | 0.00 | 94 | 1029.0 |
| 20260901101054 | 53 | 50 | 0.0 | 0.0 | 0.00 | 0.00 | 0.00 | 94 | 1028.9 |
| 20260901100549 | 53 | 50 | 0.0 | 0.0 | 0.00 | 0.00 | 0.00 | 94 | 1028.7 |
| 20260901100048 | 53 | 50 | 0.0 | 0.0 | 0.00 | 0.00 | 0.00 | 94 | 1028.5 |
| 20260901095547 | 53 | 50 | 0.0 | 0.0 | 0.00 | 0.00 | 0.00 | 94 | 1028.6 |
| 20260901095044 | 53 | 50 | 0.0 | 0.0 | 0.00 | 0.00 | 0.00 | 94 | 1028.8 |
| 20260901094540 | 53 | 50 | 0.0 | 0.0 | 0.00 | 0.00 | 0.00 | 94 | 1028.9 |
| 20260901094039 | 53 | 50 | 0.0 | 0.0 | 0.00 | 0.00 | 0.00 | 94 | 1028.6 |
| 20260901093534 | 53 | 50 | 0.0 | 0.0 | 0.00 | 0.00 | 0.00 | 94 | 1029.0 |
| 20260901093029 | 53 | 50 | 0.0 | 0.0 | 0.00 | 0.00 | 0.00 | 94 | 1028.6 |
| 20260901092525 | 53 | 50 | 0.0 | 0.0 | 0.00 | 0.00 | 0.00 | 94 | 1028.7 |
| 20260901092021 | 53 | 50 | 0.0 | 0.0 | 0.00 | 0.00 | 0.00 | 94 | 1028.8 |
| 20260901091516 | 53 | 50 | 0.0 | 0.0 | 0.00 | 0.00 | 0.00 | 94 | 1028.8 |
| 20260901091015 | 53 | 50 | 0.0 | 0.0 | 0.00 | 0.00 | 0.00 | 94 | 1028.8 |
| 20260901090510 | 52 | 50 | 0.0 | 0.0 | 0.00 | 0.00 | 0.00 | 94 | 1028.8 |
| 20260901090006 | 52 | 50 | 0.0 | 0.0 | 0.00 | 0.00 | 0.00 | 94 | 1028.7 |
| 20260901085501 | 53 | 50 | 0.0 | 0.0 | 0.00 | 0.00 | 0.00 | 94 | 1028.9 |
| 20260901084957 | 53 | 50 | 0.0 | 0.0 | 0.00 | 0.00 | 0.00 | 94 | 1028.5 |
| 20260901084453 | 53 | 50 | 0.0 | 0.0 | 0.00 | 0.00 | 0.00 | 94 | 1028.8 |
| 20260901083948 | 53 | 50 | 0.0 | 0.0 | 0.00 | 0.00 | 0.00 | 94 | 1029.0 |
| 20260901083443 | 53 | 50 | 0.0 | 0.0 | 0.00 | 0.00 | 0.00 | 94 | 1028.9 |
| 20260901082941 | 53 | 50 | 0.0 | 0.0 | 0.00 | 0.00 | 0.00 | 94 | 1029.1 |
| 20260901082436 | 53 | 50 | 0.0 | 0.0 | 0.00 | 0.00 | 0.00 | 94 | 1028.7 |
| 20260901081931 | 53 | 50 | 0.0 | 0.0 | 0.00 | 0.00 | 0.00 | 94 | 1028.6 |
| 20260901081425 | 53 | 50 | 0.0 | 0.0 | 0.00 | 0.00 | 0.00 | 94 | 1028.6 |
| 20260901080921 | 53 | 50 | 0.0 | 0.0 | 0.00 | 0.00 | 0.00 | 94 | 1028.9 |
| 20260901080415 | 53 | 50 | 0.0 | 0.0 | 0.00 | 0.00 | 0.00 | 94 | 1028.8 |
| 20260901075910 | 53 | 50 | 0.0 | 0.0 | 0.00 | 0.00 | 0.00 | 94 | 1028.6 |
| 20260901075405 | 52 | 50 | 0.0 | 0.0 | 0.00 | 0.00 | 0.00 | 94 | 1028.9 |
| 20260901074904 | 52 | 50 | 0.0 | 0.0 | 0.00 | 0.00 | 0.00 | 94 | 1028.9 |
| 20260901074359 | 52 | 50 | 0.0 | 0.0 | 0.00 | 0.00 | 0.00 | 94 | 1028.9 |
| 20260901073855 | 52 | 50 | 0.0 | 0.0 | 0.00 | 0.00 | 0.00 | 94 | 1028.7 |
| 20260901073350 | 52 | 50 | 0.0 | 0.0 | 0.00 | 0.00 | 0.00 | 94 | 1029.0 |
| 20260901072846 | 52 | 50 | 0.0 | 0.0 | 0.00 | 0.00 | 0.00 | 94 | 1028.8 |
| 20260901072346 | 52 | 50 | 0.0 | 0.0 | 0.00 | 0.00 | 0.00 | 94 | 1028.8 |
| 20260901071841 | 52 | 50 | 0.0 | 0.0 | 0.00 | 0.00 | 0.00 | 94 | 1029.0 |
| 20260901071339 | 52 | 50 | 0.0 | 0.0 | 0.00 | 0.00 | 0.00 | 94 | 1028.8 |
| 20260901070838 | 52 | 50 | 0.0 | 0.0 | 0.00 | 0.00 | 0.00 | 94 | 1028.9 |
| 20260901070335 | 52 | 50 | 0.0 | 0.0 | 0.00 | 0.00 | 0.00 | 94 | 1029.3 |
| 20260901065833 | 52 | 50 | 0.0 | 0.0 | 0.00 | 0.00 | 0.00 | 94 | 1029.0 |
| 20260901065329 | 52 | 50 | 0.0 | 0.0 | 0.00 | 0.00 | 0.00 | 94 | 1029.1 |
| 20260901064824 | 52 | 50 | 0.0 | 0.0 | 0.00 | 0.00 | 0.00 | 94 | 1029.0 |
| 20260901064321 | 52 | 50 | 0.0 | 0.0 | 0.00 | 0.00 | 0.00 | 94 | 1028.9 |
| 20260901063818 | 52 | 50 | 0.0 | 0.0 | 0.00 | 0.00 | 0.00 | 94 | 1028.9 |
| 20260901063314 | 52 | 50 | 0.0 | 0.0 | 0.00 | 0.00 | 0.00 | 94 | 1028.9 |
| 20260901062810 | 52 | 50 | 0.0 | 0.0 | 0.00 | 0.00 | 0.00 | 94 | 1029.2 |
| 20260901062309 | 52 | 50 | 0.0 | 0.0 | 0.00 | 0.00 | 0.00 | 94 | 1028.9 |
| 20260901061801 | 52 | 50 | 0.0 | 0.0 | 0.00 | 0.00 | 0.00 | 94 | 1028.8 |
| 20260901061300 | 53 | 50 | 0.0 | 0.0 | 0.00 | 0.00 | 0.00 | 94 | 1028.9 |
| 20260901060755 | 53 | 50 | 0.0 | 0.0 | 0.00 | 0.00 | 0.00 | 94 | 1029.0 |
| 20260901060251 | 53 | 50 | 0.0 | 0.0 | 0.00 | 0.00 | 0.00 | 94 | 1029.3 |
| 20260901055746 | 53 | 50 | 0.0 | 0.0 | 0.00 | 0.00 | 0.00 | 93 | 1029.0 |
| 20260901055243 | 53 | 50 | 0.0 | 0.0 | 0.00 | 0.00 | 0.00 | 93 | 1029.1 |
| 20260901054739 | 53 | 50 | 0.0 | 0.0 | 0.00 | 0.00 | 0.00 | 93 | 1029.2 |
| 20260901054235 | 53 | 50 | 0.0 | 0.0 | 0.00 | 0.00 | 0.00 | 93 | 1029.1 |
| 20260901053731 | 53 | 50 | 0.0 | 0.0 | 0.00 | 0.00 | 0.00 | 93 | 1029.3 |
| 20260901053226 | 53 | 50 | 0.0 | 0.0 | 0.00 | 0.00 | 0.00 | 93 | 1029.3 |
| 20260901052722 | 53 | 50 | 0.0 | 0.0 | 0.00 | 0.00 | 0.00 | 93 | 1029.3 |
| 20260901052218 | 53 | 50 | 0.0 | 0.0 | 0.00 | 0.00 | 0.00 | 93 | 1029.4 |
| 20260901051716 | 53 | 50 | 0.0 | 0.0 | 0.00 | 0.00 | 0.00 | 93 | 1029.3 |
| 20260901051211 | 53 | 50 | 0.0 | 0.0 | 0.00 | 0.00 | 0.00 | 93 | 1029.0 |
| 20260901050706 | 53 | 50 | 0.0 | 0.0 | 0.00 | 0.00 | 0.00 | 93 | 1029.1 |
| 20260901050201 | 53 | 50 | 0.0 | 0.0 | 0.00 | 0.00 | 0.00 | 93 | 1029.0 |
| 20260901045656 | 53 | 50 | 0.0 | 0.0 | 0.00 | 0.00 | 0.00 | 93 | 1029.2 |
| 20260901045151 | 53 | 50 | 0.0 | 0.0 | 0.00 | 0.00 | 0.00 | 93 | 1029.3 |
| 20260901044646 | 53 | 50 | 0.0 | 0.0 | 0.00 | 0.00 | 0.00 | 93 | 1029.2 |
| 20260901044143 | 53 | 50 | 0.0 | 0.0 | 0.00 | 0.00 | 0.00 | 93 | 1029.0 |
| 20260901043638 | 53 | 50 | 0.0 | 0.0 | 0.00 | 0.00 | 0.00 | 93 | 1029.2 |
| 20260901043134 | 53 | 50 | 0.0 | 0.0 | 0.00 | 0.00 | 0.00 | 93 | 1029.1 |
| 20260901042633 | 53 | 50 | 0.0 | 0.0 | 0.00 | 0.00 | 0.00 | 93 | 1028.8 |
| 20260901042128 | 53 | 50 | 0.0 | 0.0 | 0.00 | 0.00 | 0.00 | 93 | 1029.0 |
| 20260901041624 | 53 | 50 | 0.0 | 0.0 | 0.00 | 0.00 | 0.00 | 93 | 1029.1 |
| 20260901041119 | 54 | 50 | 0.0 | 0.0 | 0.00 | 0.00 | 0.00 | 93 | 1028.9 |
| 20260901040618 | 54 | 50 | 0.0 | 0.0 | 0.00 | 0.00 | 0.00 | 93 | 1028.9 |
| 20260901040112 | 54 | 50 | 0.0 | 0.0 | 0.00 | 0.00 | 0.00 | 93 | 1029.0 |
| 20260901035610 | 54 | 50 | 0.0 | 0.0 | 0.00 | 0.00 | 0.00 | 92 | 1028.8 |
| 20260901035109 | 54 | 50 | 0.0 | 0.0 | 0.00 | 0.00 | 0.00 | 92 | 1028.9 |
| 20260901034609 | 54 | 50 | 0.0 | 0.0 | 0.00 | 0.00 | 0.00 | 92 | 1029.0 |
| 20260901034104 | 54 | 50 | 0.0 | 0.0 | 0.00 | 0.00 | 0.00 | 92 | 1029.1 |
| 20260901033603 | 54 | 50 | 0.0 | 0.0 | 0.00 | 0.00 | 0.00 | 92 | 1029.1 |
| 20260901033057 | 54 | 50 | 0.0 | 0.0 | 0.00 | 0.00 | 0.00 | 92 | 1028.8 |
| 20260901032556 | 54 | 50 | 0.0 | 0.0 | 0.00 | 0.00 | 0.00 | 92 | 1029.0 |
| 20260901032051 | 54 | 50 | 0.0 | 0.0 | 0.00 | 0.00 | 0.00 | 91 | 1029.0 |
| 20260901031546 | 54 | 50 | 0.0 | 0.0 | 0.00 | 0.00 | 0.00 | 91 | 1029.0 |
| 20260901031042 | 54 | 50 | 0.0 | 0.0 | 0.00 | 0.00 | 0.00 | 91 | 1029.1 |
| 20260901030536 | 55 | 50 | 0.0 | 0.0 | 0.00 | 0.00 | 0.00 | 91 | 1029.0 |
| 20260901030036 | 55 | 50 | 0.0 | 0.0 | 0.00 | 0.00 | 0.00 | 90 | 1028.9 |
| 20260901025530 | 55 | 50 | 0.0 | 0.0 | 0.00 | 0.00 | 0.00 | 90 | 1028.9 |
| 20260901025025 | 55 | 50 | 0.0 | 0.0 | 0.00 | 0.00 | 0.00 | 90 | 1029.3 |
| 20260901024520 | 55 | 50 | 0.0 | 0.0 | 0.00 | 0.00 | 0.00 | 90 | 1029.0 |
| 20260901024019 | 55 | 50 | 0.0 | 0.0 | 0.00 | 0.00 | 0.00 | 90 | 1029.2 |
| 20260901023513 | 55 | 50 | 0.0 | 0.0 | 0.00 | 0.00 | 0.00 | 89 | 1029.4 |
| 20260901023008 | 56 | 50 | 0.0 | 0.0 | 0.00 | 0.00 | 0.00 | 89 | 1029.1 |
| 20260901022503 | 56 | 50 | 0.0 | 0.0 | 0.00 | 0.00 | 0.00 | 89 | 1029.1 |
| 20260901021958 | 56 | 50 | 0.0 | 0.0 | 0.00 | 0.00 | 0.00 | 89 | 1029.1 |
| 20260901021454 | 56 | 50 | 0.0 | 0.0 | 0.00 | 0.00 | 0.00 | 88 | 1028.8 |
| 20260901020949 | 56 | 50 | 0.0 | 0.0 | 0.00 | 0.00 | 0.00 | 88 | 1029.1 |
| 20260901020444 | 57 | 50 | 0.0 | 0.0 | 0.00 | 0.00 | 0.00 | 88 | 1029.2 |
| 20260901015943 | 57 | 50 | 0.0 | 0.0 | 0.00 | 0.00 | 0.00 | 87 | 1029.0 |
| 20260901015440 | 57 | 50 | 0.0 | 0.0 | 0.00 | 0.00 | 0.00 | 87 | 1029.0 |
| 20260901014939 | 57 | 50 | 0.0 | 0.0 | 0.00 | 0.00 | 0.00 | 87 | 1029.2 |
| 20260901014436 | 57 | 50 | 0.0 | 0.0 | 0.00 | 0.00 | 0.00 | 86 | 1029.2 |
| 20260901013931 | 57 | 50 | 0.0 | 0.0 | 0.00 | 0.00 | 0.00 | 86 | 1029.0 |
| 20260901013426 | 58 | 50 | 0.0 | 0.0 | 0.00 | 0.00 | 0.00 | 85 | 1029.0 |
| 20260901012922 | 58 | 50 | 0.0 | 0.0 | 0.00 | 0.00 | 0.00 | 85 | 1029.1 |
| 20260901012416 | 58 | 50 | 0.0 | 0.0 | 0.00 | 0.00 | 0.00 | 84 | 1028.9 |
| 20260901011912 | 58 | 50 | 0.0 | 0.0 | 0.00 | 0.00 | 0.00 | 84 | 1028.7 |
| 20260901011408 | 59 | 50 | 0.0 | 0.0 | 0.00 | 0.00 | 0.00 | 83 | 1029.1 |
| 20260901010906 | 59 | 50 | 0.0 | 0.0 | 0.00 | 0.00 | 0.00 | 83 | 1029.1 |
| 20260901010401 | 59 | 50 | 0.0 | 0.0 | 0.00 | 0.00 | 0.00 | 81 | 1028.7 |
| 20260901005900 | 59 | 50 | 0.0 | 0.0 | 0.00 | 0.00 | 0.00 | 81 | 1028.8 |
| 20260901005355 | 60 | 50 | 0.0 | 0.0 | 0.00 | 0.00 | 0.00 | 80 | 1028.8 |
| 20260901004850 | 59 | 50 | 0.0 | 0.0 | 0.00 | 0.00 | 0.00 | 81 | 1028.9 |
| 20260901004349 | 59 | 50 | 0.0 | 0.0 | 0.00 | 0.00 | 0.00 | 80 | 1028.9 |
| 20260901003844 | 60 | 50 | 0.0 | 0.0 | 0.00 | 0.00 | 0.00 | 80 | 1028.8 |
| 20260901003339 | 60 | 50 | 0.0 | 0.0 | 0.00 | 0.00 | 0.00 | 79 | 1028.9 |
| 20260901002838 | 60 | 50 | 0.0 | 0.0 | 0.00 | 0.00 | 0.00 | 79 | 1028.9 |
| 20260901002337 | 61 | 50 | 0.0 | 0.0 | 0.00 | 0.00 | 0.00 | 78 | 1028.7 |
| 20260901001832 | 61 | 50 | 0.0 | 0.0 | 0.00 | 0.00 | 0.00 | 78 | 1028.9 |
| 20260901001327 | 61 | 50 | 0.0 | 0.0 | 0.00 | 0.00 | 0.00 | 77 | 1028.8 |
| 20260901000823 | 61 | 50 | 0.0 | 0.0 | 0.00 | 0.00 | 0.00 | 76 | 1028.6 |
| 20260901000321 | 62 | 50 | 0.0 | 0.0 | 0.00 | 0.00 | 0.00 | 76 | 1028.8 |
| 20260831235816 | 62 | 50 | 0.0 | 0.0 | 0.00 | 0.00 | 0.00 | 76 | 1028.5 |
| 20260831235313 | 62 | 50 | 0.0 | 0.0 | 0.00 | 0.00 | 0.00 | 75 | 1028.5 |
| 20260831234808 | 63 | 50 | 0.0 | 0.0 | 0.00 | 0.00 | 0.00 | 75 | 1028.5 |
| 20260831234307 | 63 | 50 | 0.0 | 0.0 | 0.00 | 0.00 | 0.00 | 74 | 1028.4 |
| 20260831233803 | 63 | 50 | 0.0 | 0.0 | 0.00 | 0.00 | 0.00 | 73 | 1028.3 |
| 20260831233258 | 64 | 50 | 0.0 | 0.0 | 0.00 | 0.00 | 0.00 | 73 | 1028.6 |
| 20260831232753 | 64 | 50 | 0.0 | 0.0 | 0.00 | 0.00 | 0.00 | 72 | 1028.6 |
| 20260831232249 | 64 | 50 | 0.0 | 0.0 | 0.00 | 0.00 | 0.00 | 71 | 1028.8 |
| 20260831231739 | 65 | 50 | 0.0 | 0.0 | 0.00 | 0.00 | 0.00 | 71 | 1028.8 |
| 20260831231235 | 65 | 50 | 0.0 | 0.0 | 0.00 | 0.00 | 0.00 | 70 | 1028.6 |
| 20260831230730 | 66 | 50 | 0.0 | 0.0 | 0.00 | 0.00 | 0.00 | 69 | 1028.6 |
| 20260831230225 | 66 | 50 | 0.0 | 0.0 | 0.00 | 0.00 | 0.00 | 69 | 1028.7 |
| 20260831225724 | 67 | 50 | 0.0 | 0.0 | 0.00 | 0.00 | 0.00 | 68 | 1028.8 |
| 20260831225220 | 67 | 50 | 0.0 | 0.0 | 0.00 | 0.00 | 0.00 | 67 | 1028.8 |
| 20260831224714 | 67 | 50 | 0.0 | 0.0 | 0.00 | 0.00 | 0.00 | 67 | 1028.6 |
| 20260831224210 | 68 | 50 | 0.0 | 0.0 | 0.00 | 0.00 | 0.00 | 66 | 1028.5 |
| 20260831223705 | 68 | 50 | 0.0 | 0.0 | 0.00 | 0.00 | 0.00 | 65 | 1028.6 |
| 20260831223202 | 68 | 50 | 0.0 | 0.0 | 0.00 | 0.00 | 0.00 | 65 | 1028.6 |
| 20260831222657 | 68 | 50 | 0.0 | 0.0 | 0.00 | 0.00 | 0.00 | 64 | 1028.7 |
| 20260831222153 | 69 | 50 | 0.0 | 0.0 | 0.00 | 0.00 | 0.00 | 63 | 1028.6 |
| 20260831221648 | 69 | 50 | 0.0 | 0.0 | 0.00 | 0.00 | 0.00 | 61 | 1028.5 |
| 20260831221143 | 69 | 50 | 0.0 | 0.0 | 0.00 | 0.00 | 0.00 | 60 | 1028.4 |
| 20260831220638 | 69 | 50 | 0.0 | 0.0 | 0.00 | 0.00 | 0.00 | 60 | 1028.6 |
| 20260831220133 | 70 | 50 | 0.0 | 0.0 | 0.00 | 0.00 | 0.00 | 59 | 1028.4 |
| 20260831215629 | 71 | 50 | 0.0 | 0.0 | 0.00 | 0.00 | 0.00 | 60 | 1028.4 |
| 20260831215124 | 71 | 50 | 0.0 | 2.0 | 0.00 | 0.00 | 0.00 | 56 | 1028.3 |
| 20260831214622 | 71 | 50 | 0.0 | 0.0 | 0.00 | 0.00 | 0.00 | 58 | 1028.6 |
| 20260831214118 | 71 | 50 | 0.0 | 1.0 | 0.00 | 0.00 | 0.00 | 57 | 1028.5 |
| 20260831213614 | 71 | 50 | 0.0 | 0.0 | 0.00 | 0.00 | 0.00 | 56 | 1028.5 |
| 20260831213109 | 72 | 50 | 0.0 | 0.0 | 0.00 | 0.00 | 0.00 | 55 | 1028.6 |
| 20260831212605 | 72 | 50 | 0.0 | 0.0 | 0.00 | 0.00 | 0.00 | 57 | 1028.5 |
| 20260831212101 | 72 | 50 | 0.0 | 1.0 | 0.00 | 0.00 | 0.00 | 56 | 1028.5 |
| 20260831211555 | 72 | 50 | 0.0 | 0.0 | 0.00 | 0.00 | 0.00 | 56 | 1028.5 |
| 20260831211054 | 72 | 50 | 0.0 | 1.0 | 0.00 | 0.00 | 0.00 | 55 | 1028.7 |
| 20260831210549 | 72 | 50 | 0.0 | 1.0 | 0.00 | 0.00 | 0.00 | 53 | 1028.2 |
| 20260831210046 | 73 | 50 | 0.0 | 1.0 | 0.00 | 0.00 | 0.00 | 50 | 1028.6 |
| 20260831205545 | 73 | 50 | 0.0 | 0.0 | 0.00 | 0.00 | 0.00 | 47 | 1028.6 |
| 20260831205041 | 74 | 50 | 0.0 | 0.0 | 0.00 | 0.00 | 0.00 | 46 | 1028.4 |
| 20260831204530 | 74 | 50 | 0.0 | 0.0 | 0.00 | 0.00 | 0.00 | 46 | 1028.7 |
| 20260831204028 | 74 | 50 | 0.0 | 1.0 | 0.00 | 0.00 | 0.00 | 45 | 1028.6 |
| 20260831203523 | 75 | 50 | 0.0 | 0.0 | 0.00 | 0.00 | 0.00 | 44 | 1028.4 |
| 20260831203021 | 75 | 50 | 0.0 | 1.0 | 0.00 | 0.00 | 0.00 | 44 | 1028.4 |
| 20260831202516 | 76 | 50 | 0.0 | 0.0 | 0.00 | 0.00 | 0.00 | 44 | 1028.5 |
| 20260831202016 | 77 | 50 | 0.0 | 0.0 | 0.00 | 0.00 | 0.00 | 41 | 1028.8 |
| 20260831201514 | 78 | 50 | 0.0 | 0.0 | 0.00 | 0.00 | 0.00 | 40 | 1028.7 |
| 20260831201010 | 79 | 50 | 0.0 | 0.0 | 0.00 | 0.00 | 0.00 | 39 | 1028.7 |
| 20260831200505 | 81 | 50 | 0.0 | 0.0 | 0.00 | 0.00 | 0.00 | 38 | 1028.7 |
| 20260831195959 | 78 | 50 | 0.0 | 0.0 | 0.00 | 0.00 | 0.00 | 36 | 1028.6 |
| 20260831195455 | 79 | 50 | 0.0 | 0.0 | 0.00 | 0.00 | 0.00 | 35 | 1028.7 |
| 20260831194950 | 82 | 50 | 0.0 | 1.0 | 0.00 | 0.00 | 0.00 | 34 | 1028.7 |
| 20260831194445 | 81 | 50 | 0.0 | 2.0 | 0.00 | 0.00 | 0.00 | 34 | 1028.8 |
| 20260831193945 | 79 | 50 | 0.0 | 0.0 | 0.00 | 0.00 | 0.00 | 34 | 1028.7 |
| 20260831193440 | 81 | 50 | 0.0 | 1.0 | 0.00 | 0.00 | 0.00 | 34 | 1029.1 |
| 20260831192935 | 82 | 50 | 0.0 | 0.0 | 0.00 | 0.00 | 0.00 | 35 | 1029.1 |
| 20260831192430 | 82 | 50 | 0.0 | 1.0 | 0.00 | 0.00 | 0.00 | 31 | 1029.2 |
| 20260831191925 | 81 | 50 | 0.0 | 0.0 | 0.00 | 0.00 | 0.00 | 35 | 1029.2 |
| 20260831191421 | 81 | 50 | 0.0 | 0.0 | 0.00 | 0.00 | 0.00 | 33 | 1029.2 |